Location: Poughquag
(41.6090°N, 73.6820°W)
Time: 05:57:37
(UTC-04:00)

A-11 Canister half - Pass Details

Date: 29 May 2020
Orbit: 1514 x 1686 km, 47.2° (Epoch: 06 July)

Event Time Altitude Azimuth Distance (km) Brightness Sun altitude
Rises 23:01:17 0° 286° (WNW) 4,658 12.2 -21.6°
Reaches altitude 10° 23:06:41 10° 260° (W) 3,683 11.2 -22.0°
Maximum altitude 23:10:12 13° 237° (WSW) 3,480 10.8 -22.3°
Drops below altitude 10° 23:13:45 10° 214° (SW) 3,708 10.7 -22.6°
Enters shadow 23:14:27 - 210° (SSW) 3,798 10.7 -22.6°
